Vorticity
3 2 8 9 2 -4 14 3 1 23 -9 8 3 3 0 -2 2 2 18 6 11 6 1 2 4 7 7 11 10 7 6 6 6 4 6 6 4 3 4 5 4 6 5 4 4 3 2 3 3
7 8 9 9 -23 -4 17 11 16 17 3 8 17 6 -1 -2 -5 4 18 12 10 8 6 2 3 0 1 3 3 2 3 1 3 2 6 5 5 6 6 4 4 3 -0 3 4 3 3 3 3
7 7 6 2 1 3 -3 15 10 8 3 9 12 -0 4 2 -1 7 14 -2 4 8 7 6 6 4 4 4 5 5 5 5 6 5 5 6 7 7 7 7 11 9 8 6 6 5 5 5 6
8 8 11 -8 10 -2 -11 17 9 7 2 16 -4 -3 7 -2 4 5 2 5 5 6 6 6 5 5 4 5 4 5 6 6 7 7 6 6 6 7 8 8 9 7 7 6 6 6 7 7 4
9 7 -0 11 -3 14 -0 13 13 6 4 13 8 2 2 -0 -0 4 4 3 4 6 6 5 5 5 4 3 5 7 6 5 6 9 10 10 9 7 4 4 4 5 5 5 5 6 5 5 5
6 -5 18 -6 5 -2 4 13 9 7 8 7 8 -2 1 -2 1 9 5 4 4 5 5 5 5 3 3 6 7 5 6 8 8 7 4 4 5 6 6 5 5 5 6 6 6 7 7 7 7
5 1 3 14 3 1 12 6 9 7 5 4 0 1 -5 1 3 8 5 4 4 5 5 5 3 4 8 6 5 7 8 7 5 5 5 5 6 6 6 6 6 6 6 6 6 7 7 6 6
7 2 3 14 2 5 6 2 5 6 6 5 2 2 2 1 11 8 7 4 4 5 5 4 5 6 5 6 7 8 7 6 5 5 6 6 6 6 5 5 5 5 6 6 6 7 8 8 9
6 -6 3 10 12 0 1 3 5 1 -1 1 5 6 8 8 14 8 6 4 4 4 4 5 5 5 6 8 8 6 6 6 6 6 6 5 4 4 4 5 6 7 8 9 9 10 10 9 9
4 -1 15 0 11 8 10 9 10 2 2 3 10 12 6 7 8 5 4 4 5 4 4 5 5 6 7 7 7 6 6 6 6 5 4 4 4 5 6 8 9 11 11 11 10 10 9 7 8
8 8 -8 16 10 10 11 13 7 6 4 2 12 17 13 5 5 3 5 5 4 4 5 5 6 7 8 6 5 5 6 5 4 4 4 5 5 6 8 10 11 10 10 9 8 7 7 6 9
3 -5 0 17 12 15 8 15 1 3 5 17 9 8 15 7 7 6 4 4 4 4 5 5 7 8 7 6 5 5 4 4 4 5 6 7 9 10 10 10 10 10 8 7 5 8 12 12 11
-4 19 14 3 12 13 11 9 5 3 5 12 6 8 7 6 3 3 6 5 3 5 6 6 7 7 5 5 5 4 4 5 6 8 10 12 12 11 11 11 10 8 6 9 11 6 7 9 9
17 21 12 4 14 14 9 7 -0 2 2 9 9 4 2 3 4 5 4 3 4 5 7 7 7 6 5 4 4 4 5 7 9 12 12 12 13 13 14 11 9 7 7 4 7 11 10 11 11
11 11 3 15 14 11 6 5 -0 3 9 10 5 8 6 4 4 3 3 3 5 6 6 6 6 5 4 4 4 4 6 9 10 10 9 9 11 12 12 10 7 7 5 6 9 10 11 10 8
3 11 7 22 15 7 3 8 2 2 8 7 9 8 5 5 4 4 3 4 5 6 6 6 5 4 4 4 5 5 9 9 8 10 11 11 11 12 10 7 4 5 8 10 12 10 9 9 9
14 23 -2 20 10 10 -1 17 4 2 7 9 4 5 7 5 6 4 4 5 5 6 5 5 5 4 4 4 5 6 10 8 8 6 6 7 8 7 6 5 7 9 12 12 11 9 9 8 7
18 19 11 10 23 15 2 20 3 2 6 10 7 6 5 6 4 2 4 5 5 5 6 5 5 4 4 5 5 9 9 7 5 5 7 10 10 8 9 10 10 12 9 8 8 7 6 6 7
4 25 11 12 14 17 3 19 21 8 12 10 6 4 4 5 3 4 5 7 5 4 5 6 5 4 4 7 6 10 7 5 4 5 11 13 14 13 10 11 11 8 6 6 6 6 7 7 7
16 16 15 18 4 2 10 -0 16 10 7 8 9 8 8 5 4 5 5 5 3 5 6 6 5 4 5 7 10 9 6 5 5 10 12 9 8 8 8 6 5 5 7 6 7 7 7 7 7
1 -8 1 4 9 -0 8 5 4 7 8 6 4 5 4 3 3 5 5 4 6 8 7 5 4 5 7 8 11 7 5 7 11 13 9 7 7 6 7 7 8 7 7 7 6 6 6 6 6
4 1 8 12 6 -4 -5 28 5 4 8 6 7 6 9 10 9 6 5 6 6 5 7 3 4 8 8 13 8 6 6 9 9 7 8 7 7 7 7 8 7 7 6 6 7 7 7 7 7
27 14 -8 14 -11 -9 13 -13 46 3 3 4 3 1 -1 0 1 3 4 6 8 7 6 5 9 8 13 8 6 5 7 9 7 6 6 7 7 7 7 7 7 8 8 8 7 7 7 7 7
24 14 16 16 14 -2 23 -24 31 20 12 6 4 4 5 6 6 4 5 8 7 7 9 9 11 12 7 6 4 3 5 9 6 5 8 8 7 6 7 7 7 7 8 7 7 8 8 8 9
8 3 0 3 9 2 21 11 -43 25 15 14 9 9 9 6 8 7 9 10 10 9 10 14 10 7 5 3 3 4 8 10 8 8 6 6 7 6 6 7 7 7 7 7 7 7 7 8 8
19 -33 5 10 9 19 19 14 12 -10 13 11 8 9 10 13 12 11 11 11 10 12 12 8 6 4 4 5 6 10 11 7 8 5 7 11 9 7 7 7 7 7 8 7 7 7 7 7 7
31 -15 5 1 12 -7 7 19 20 17 -1 10 11 9 8 10 10 9 8 9 10 9 7 5 4 5 6 9 11 10 8 7 6 5 6 7 7 7 8 9 9 8 8 7 5 6 7 8 8
13 -26 7 11 6 6 24 13 -35 28 17 -0 9 8 7 7 10 9 8 8 7 6 4 5 6 7 9 8 7 6 7 8 10 12 12 12 11 12 11 10 9 9 8 6 5 7 7 7 6
25 9 -5 7 7 10 9 24 32 -13 25 15 6 5 7 8 6 7 9 7 5 5 5 6 8 8 7 7 8 9 10 9 9 9 8 8 9 8 9 8 7 6 5 6 7 9 8 8 7
-12 11 -8 6 12 9 8 14 27 19 16 9 12 12 10 7 9 8 6 5 5 7 9 9 8 6 6 9 9 10 9 7 6 6 6 7 8 8 7 7 8 9 10 10 10 10 11 11 11
Height
3144 3147 3149 3153 3159 3154 3151 3154 3155 3156 3162 3164 3166 3168 3172 3173 3173 3176 3173 3174 3176 3177 3179 3180 3181 3181 3182 3182 3182 3182 3182 3182 3182 3182 3182 3182 3181 3181 3181 3180 3180 3179 3179 3178 3178 3177 3176 3175 3174
3139 3143 3146 3147 3149 3147 3147 3150 3152 3156 3160 3162 3164 3167 3171 3172 3172 3173 3173 3175 3176 3178 3179 3180 3180 3181 3181 3181 3181 3181 3180 3181 3180 3180 3180 3180 3179 3179 3179 3179 3178 3177 3177 3176 3176 3175 3174 3173 3173
3135 3138 3142 3142 3142 3142 3144 3147 3151 3154 3157 3160 3163 3167 3169 3171 3172 3173 3174 3175 3176 3177 3178 3179 3180 3180 3181 3180 3181 3180 3180 3180 3179 3179 3179 3179 3178 3177 3176 3176 3175 3175 3174 3174 3173 3173 3172 3171 3170
3130 3134 3137 3134 3134 3139 3143 3146 3148 3152 3156 3158 3162 3165 3168 3169 3170 3172 3174 3175 3176 3177 3177 3178 3178 3179 3179 3179 3179 3179 3179 3179 3178 3178 3177 3177 3176 3175 3175 3174 3173 3172 3172 3171 3170 3169 3168 3167 3167
3124 3126 3128 3127 3132 3136 3141 3144 3147 3151 3154 3157 3160 3163 3166 3168 3169 3171 3173 3174 3175 3175 3177 3177 3178 3178 3178 3178 3178 3178 3177 3177 3176 3176 3175 3175 3174 3173 3173 3172 3171 3170 3169 3168 3167 3166 3166 3165 3164
3117 3119 3119 3121 3128 3133 3139 3141 3144 3149 3153 3155 3159 3162 3165 3166 3168 3170 3172 3173 3174 3175 3176 3176 3177 3177 3177 3176 3177 3176 3175 3175 3174 3174 3173 3173 3172 3172 3171 3169 3168 3167 3166 3165 3165 3164 3163 3162 3161
3109 3112 3112 3119 3125 3130 3135 3138 3142 3146 3152 3154 3157 3160 3163 3164 3167 3169 3170 3172 3173 3174 3175 3175 3175 3175 3175 3175 3175 3175 3174 3173 3172 3172 3172 3171 3170 3169 3168 3167 3166 3165 3164 3163 3162 3161 3159 3158 3156
3105 3108 3111 3114 3119 3127 3131 3135 3139 3144 3149 3153 3155 3157 3161 3164 3165 3167 3169 3170 3171 3172 3174 3174 3174 3174 3173 3173 3173 3173 3173 3172 3171 3170 3169 3169 3168 3166 3165 3164 3163 3162 3160 3158 3157 3156 3155 3153 3152
3100 3104 3104 3110 3116 3124 3129 3133 3137 3142 3147 3150 3152 3155 3159 3162 3164 3166 3168 3169 3170 3171 3172 3172 3172 3172 3172 3172 3171 3171 3171 3170 3169 3168 3167 3165 3164 3163 3162 3161 3160 3158 3156 3154 3152 3151 3150 3148 3147
3095 3095 3101 3109 3115 3120 3126 3131 3135 3139 3143 3147 3150 3153 3157 3160 3163 3164 3166 3168 3169 3170 3170 3170 3170 3170 3170 3170 3170 3170 3169 3168 3167 3166 3164 3162 3161 3159 3158 3156 3155 3153 3151 3150 3148 3147 3146 3144 3143
3090 3092 3100 3107 3112 3118 3124 3128 3133 3137 3141 3145 3149 3152 3155 3158 3161 3163 3165 3166 3167 3168 3168 3168 3169 3169 3169 3169 3168 3167 3167 3166 3165 3163 3161 3159 3157 3155 3153 3152 3150 3148 3147 3146 3145 3143 3142 3140 3139
3088 3092 3098 3104 3109 3115 3121 3127 3130 3135 3140 3143 3146 3150 3154 3157 3159 3161 3163 3164 3165 3166 3166 3166 3167 3167 3167 3167 3166 3165 3164 3163 3162 3160 3157 3154 3152 3150 3148 3147 3146 3144 3143 3143 3141 3140 3138 3136 3135
3086 3091 3095 3103 3107 3113 3119 3124 3129 3133 3137 3141 3144 3147 3151 3154 3157 3159 3161 3162 3163 3164 3164 3164 3164 3165 3165 3165 3164 3163 3162 3160 3159 3156 3153 3150 3147 3146 3144 3143 3143 3142 3140 3139 3137 3136 3134 3133 3132
3085 3091 3095 3101 3106 3111 3116 3122 3126 3131 3135 3138 3142 3146 3149 3152 3155 3157 3158 3159 3160 3161 3162 3162 3162 3163 3162 3162 3161 3160 3159 3157 3154 3152 3149 3146 3144 3142 3141 3141 3140 3139 3137 3136 3134 3132 3131 3130 3128
3085 3091 3094 3099 3103 3108 3114 3121 3123 3128 3132 3136 3140 3144 3147 3150 3152 3154 3156 3157 3158 3159 3159 3160 3160 3160 3160 3160 3158 3157 3155 3153 3151 3148 3145 3143 3141 3140 3139 3138 3137 3136 3134 3132 3130 3129 3127 3127 3126
3084 3088 3091 3095 3100 3105 3111 3114 3119 3125 3130 3134 3137 3141 3145 3148 3149 3152 3153 3154 3155 3156 3157 3157 3157 3158 3157 3156 3155 3154 3151 3150 3148 3145 3143 3141 3139 3138 3137 3135 3134 3132 3131 3129 3127 3125 3124 3124 3123
3079 3081 3086 3092 3096 3101 3107 3111 3117 3122 3126 3132 3136 3139 3143 3145 3147 3149 3150 3152 3153 3153 3154 3154 3154 3154 3154 3153 3152 3150 3148 3146 3145 3143 3140 3138 3137 3136 3134 3133 3132 3130 3128 3126 3124 3123 3122 3121 3120
3073 3079 3084 3089 3096 3100 3105 3110 3115 3120 3124 3129 3133 3137 3141 3143 3145 3146 3147 3149 3149 3150 3151 3151 3151 3151 3151 3150 3149 3147 3145 3143 3142 3140 3138 3136 3134 3133 3131 3130 3129 3128 3126 3123 3122 3121 3120 3119 3118
3073 3079 3084 3089 3095 3101 3106 3110 3114 3118 3122 3126 3130 3134 3138 3140 3141 3143 3145 3146 3146 3147 3148 3148 3148 3148 3146 3147 3145 3143 3142 3140 3139 3137 3135 3133 3131 3129 3128 3127 3126 3124 3123 3122 3120 3119 3118 3117 3115
3074 3080 3086 3091 3095 3101 3104 3109 3112 3116 3121 3125 3128 3132 3135 3137 3138 3140 3141 3142 3143 3143 3144 3144 3144 3144 3143 3144 3142 3140 3138 3137 3136 3134 3131 3130 3128 3126 3125 3123 3122 3120 3119 3118 3117 3116 3115 3113 3111
3073 3079 3084 3089 3095 3100 3104 3108 3110 3113 3117 3121 3124 3128 3130 3132 3134 3136 3138 3138 3139 3140 3140 3140 3139 3140 3140 3140 3138 3136 3135 3134 3132 3129 3128 3127 3125 3123 3122 3120 3119 3117 3116 3115 3113 3111 3110 3108 3106
3073 3081 3087 3091 3096 3099 3104 3106 3107 3111 3114 3117 3121 3125 3127 3129 3131 3132 3134 3135 3135 3135 3136 3136 3136 3137 3136 3136 3134 3133 3132 3130 3128 3126 3125 3123 3121 3119 3118 3116 3115 3113 3112 3110 3109 3107 3105 3103 3101
3073 3080 3086 3091 3096 3099 3103 3106 3104 3107 3110 3114 3118 3121 3124 3126 3127 3128 3130 3131 3131 3132 3132 3132 3133 3133 3133 3132 3131 3129 3128 3126 3124 3122 3121 3119 3117 3115 3113 3112 3110 3109 3107 3105 3103 3101 3100 3098 3096
3074 3079 3086 3092 3097 3100 3100 3104 3102 3104 3108 3112 3115 3117 3120 3121 3123 3125 3126 3127 3128 3128 3128 3129 3129 3129 3129 3128 3126 3125 3123 3121 3119 3118 3116 3113 3112 3110 3109 3107 3105 3104 3102 3099 3098 3096 3094 3092 3091
3075 3078 3087 3099 3101 3099 3097 3102 3098 3101 3104 3107 3111 3113 3115 3117 3119 3121 3122 3123 3124 3124 3125 3126 3126 3125 3125 3124 3122 3121 3119 3117 3115 3113 3111 3109 3107 3105 3104 3102 3100 3099 3097 3095 3093 3091 3090 3088 3086
3076 3077 3078 3094 3099 3094 3096 3095 3095 3098 3100 3103 3106 3108 3111 3113 3115 3117 3118 3119 3120 3121 3122 3122 3122 3121 3121 3119 3118 3116 3114 3112 3110 3108 3106 3104 3102 3100 3098 3097 3095 3093 3091 3089 3088 3086 3084 3081 3079
3077 3078 3080 3081 3088 3091 3093 3093 3093 3094 3097 3099 3102 3105 3108 3110 3112 3113 3114 3115 3117 3118 3118 3118 3118 3117 3116 3114 3113 3111 3109 3108 3106 3103 3101 3099 3097 3094 3092 3091 3089 3087 3085 3083 3081 3079 3076 3075 3072
3076 3080 3081 3080 3090 3091 3090 3089 3087 3089 3092 3096 3100 3103 3105 3107 3109 3110 3111 3113 3114 3114 3114 3114 3113 3112 3111 3109 3108 3106 3104 3102 3100 3098 3095 3093 3090 3088 3086 3084 3082 3080 3078 3076 3075 3072 3069 3067 3064
3077 3078 3079 3080 3082 3084 3090 3085 3085 3088 3091 3094 3097 3100 3103 3105 3106 3107 3108 3109 3109 3110 3110 3109 3108 3107 3106 3104 3103 3101 3098 3096 3094 3092 3089 3086 3085 3082 3080 3078 3076 3074 3071 3069 3066 3064 3061 3058 3056
3075 3077 3079 3080 3083 3082 3083 3084 3083 3085 3087 3091 3094 3097 3100 3101 3102 3104 3105 3106 3106 3106 3105 3105 3104 3103 3101 3099 3097 3095 3092 3090 3088 3085 3083 3081 3079 3076 3074 3072 3069 3067 3064 3061 3057 3055 3052 3049 3047